Weather History for KATY - October, 2012

Change the Weather History Date:

Tuesday, October 30, 2012

  Actual Average Record
Temperature  
Mean Temperature 40 °F 39 °F  
Max Temperature 45 °F 49 °F 85 °F (1950)
Min Temperature 34 °F 29 °F 3 °F (1925)
Degree Days  
Heating Degree Days 25 26  
Month to date heating degree days 628 582  
Since 1 July heating degree days 867 858  
Cooling Degree Days 0 0  
Month to date cooling degree days 0 0  
Year to date cooling degree days 788 513  
Moisture  
Dew Point 30 °F    
Average Humidity 67    
Maximum Humidity 85    
Minimum Humidity 49    
Precipitation  
Precipitation 0.02 in 0.05 in 1.91 in (1977)
Month to date precipitation 1.63 1.88  
Year to date precipitation 17.24 20.75  
Snow  
Snow 0.00 in - - ()
Month to date snowfall 0.5  
Since 1 July snowfall 0.5  
Snow Depth 0.00 in    
Sea Level Pressure  
Sea Level Pressure 30.12 in    
Wind  
Wind Speed 8 mph (SE)    
Max Wind Speed 16 mph    
Max Gust Speed 21 mph    
Visibility 10 miles    
Events      
T = Trace of Precipitation, MM = Missing Value Source: NWS Daily Summary

Daily Weather History Graph

Daily Weather History Graph

Search for Another Location

Airport or City:

Trip Planner

Search our weather history database for the weather conditions in past years. The results will help you decide how hot, cold, wet, or windy it might be!

Date:

Astronomy

Oct. 30, 2012 Rise Set
Actual Time 8:04 AM CDT 6:18 PM CDT
Civil Twilight 7:34 AM CDT 6:49 PM CDT
Nautical Twilight 6:59 AM CDT 7:23 PM CDT
Astronomical Twilight 6:25 AM CDT 7:57 PM CDT
Moon 6:45 PM CDT (10/30) 8:56 AM CDT (10/30)
Length of Visible Light 11h 15m
Length of Day
10h 14m
Full, 99% of the Moon is Illuminated
Oct 30
Full
Nov 6
Last Quarter
Nov 13
New
Nov 20
First Quarter
Nov 28
Full

Hourly Weather History & Observations

Time (CDT) Temp. Windchill Dew Point Humidity Pressure Visibility Wind Dir Wind Speed Gust Speed Precip Events Conditions
12:53 AM 39.0 °F 31.4 °F 28.9 °F 67% 30.14 in 10.0 mi SSE 12.7 mph - N/A   Overcast
1:53 AM 39.0 °F 31.0 °F 28.9 °F 67% 30.13 in 10.0 mi SSE 13.8 mph - N/A   Overcast
2:53 AM 37.9 °F 30.5 °F 28.9 °F 70% 30.13 in 10.0 mi SSE 11.5 mph - N/A   Overcast
3:53 AM 37.9 °F 31.5 °F 28.9 °F 70% 30.13 in 10.0 mi SSE 9.2 mph - N/A   Overcast
4:53 AM 37.9 °F 32.1 °F 28.9 °F 70% 30.14 in 10.0 mi SE 8.1 mph - N/A   Overcast
6:53 AM 37.0 °F 31.0 °F 32.0 °F 82% 30.13 in 10.0 mi SE 8.1 mph - 0.01 in   Overcast
7:53 AM 39.0 °F 34.0 °F 33.1 °F 79% 30.11 in 10.0 mi SE 6.9 mph - 0.00 in   Overcast
8:53 AM 39.0 °F 36.8 °F 33.1 °F 79% 30.13 in 10.0 mi ESE 3.5 mph - N/A   Overcast
9:53 AM 37.9 °F 31.5 °F 33.1 °F 83% 30.13 in 10.0 mi ESE 9.2 mph - N/A   Overcast
10:53 AM 39.9 °F 32.9 °F 33.1 °F 77% 30.14 in 10.0 mi SSE 11.5 mph - N/A   Overcast
11:53 AM 42.1 °F 35.2 °F 34.0 °F 73% 30.15 in 10.0 mi SSE 12.7 mph - N/A   Overcast
12:53 PM 44.1 °F 37.7 °F 32.0 °F 63% 30.14 in 10.0 mi SSE 12.7 mph - N/A   Mostly Cloudy
1:53 PM 44.1 °F 37.4 °F 30.0 °F 58% 30.13 in 10.0 mi SSE 13.8 mph - N/A   Overcast
2:53 PM 45.0 °F 38.9 °F 28.9 °F 53% 30.12 in 10.0 mi SE 12.7 mph - N/A   Overcast
3:53 PM 44.1 °F 39.0 °F 27.0 °F 51% 30.11 in 10.0 mi SSE 9.2 mph - N/A   Overcast
4:53 PM 44.1 °F 40.1 °F 26.1 °F 49% 30.12 in 10.0 mi SSE 6.9 mph - N/A   Overcast
5:53 PM 44.1 °F 40.1 °F 27.0 °F 51% 30.09 in 10.0 mi SSE 6.9 mph - N/A   Mostly Cloudy
6:53 PM 41.0 °F 37.1 °F 30.0 °F 65% 30.10 in 10.0 mi SE 5.8 mph - 0.01 in   Mostly Cloudy
7:53 PM 39.0 °F 36.8 °F 28.9 °F 67% 30.11 in 10.0 mi ESE 3.5 mph - N/A   Partly Cloudy
8:53 PM 39.0 °F 34.8 °F 28.0 °F 65% 30.09 in 10.0 mi SE 5.8 mph - N/A   Overcast
9:53 PM 37.0 °F 33.3 °F 27.0 °F 67% 30.09 in 10.0 mi ESE 4.6 mph - N/A   Clear
10:53 PM 34.0 °F 31.0 °F 27.0 °F 75% 30.11 in 10.0 mi SSE 3.5 mph - N/A   Clear
11:53 PM 35.1 °F 32.2 °F 27.0 °F 72% 30.09 in 10.0 mi ESE 3.5 mph - N/A   Scattered Clouds